Warning: Javascript must be enabled to use all the features on this page!


Page Loading - Please Wait...

* We've detected you're using a mobile device. Find our Next Generation Station Page here.
Click to hideNews Bulletins

Peak Streamflow for the Nation

USGS 11276500 TUOLUMNE R NR HETCH HETCHY CA

Tuolumne County, California
Hydrologic Unit Code 18040009
Latitude  37°56'15", Longitude 119°47'50" NAD27
Drainage area 457  square miles
Gage datum 3,430.00 feet above NGVD29
Output formats
Table
Graph
Tab-separated file
peakfq (watstore) format
Reselect output format
Water
Year
Date Gage
Height
(feet)
Stream-
flow
(cfs)
1915 1915-06-01 12.55 9,040
1916 1916-06-08 12.30 8,350
1917 1917-06-10 13.80 10,000
1918 1918-06-14 12.90 8,500
1919 1919-05-29 13.40 11,400
1920 1920-05-21 11.90 7,310
1921 1921-06-12 12.20 8,090
1922 1922-06-05 12.70 9,450
1923 1923-06-10 12.30 8,3506
1924 1924-07-12 9.81 3,2906
1925 1925-05-27 12.60 9,1706
1926 1926-06-08 11.10 5,4906
1927 1927-06-07 12.70 9,4506
1928 1928-05-23 11.34 5,9106
1929 1929-06-16 13.58 12,0006
1930 1930-06-10 11.25 5,6906
1931 1931-08-08 7.42 1,2806
1932 1932-06-22 12.70 9,4506
1933 1933-06-13 13.03 10,3006
1934 1934-09-26 6.68 9706
1935 1935-06-06 12.88 10,0006
1936 1936-06-13 12.03 7,5706
1937 1937-05-30 11.25 5,6906
1938 1938-06-04 13.25 10,8006
1939 1939-05-02 10.50 4,3506
1940 1940-05-25 11.43 6,2006
1941 1941-06-20 12.27 8,2706
1942 1942-06-11 12.30 8,3506
1943 1943-06-01 13.90 12,9006
1944 1944-06-30 9.78 3,2706
1945 1945-06-14 12.28 8,3006
1946 1946-05-21 11.63 6,6606
1947 1947-07-13 8.83 2,2906
1948 1948-06-15 10.95 5,1906
1949 1949-06-12 10.43 4,2406
1950 1950-06-15 13.15 10,7006
1951 1951-05-27 13.10 10,6006
1952 1952-07-02 11.50 6,3506
1953 1953-06-20 12.01 7,6006
1954 1954-06-02 11.75 6,9506
1955 1955-07-06 8.55 2,0506
1956 1956-06-29 12.30 8,3506
1957 1957-06-07 12.56 9,0606
1958 1958-06-24 11.84 6,7306
1959 1958-11-17 9.35 2,7806
1960 1960-06-08 8.29 1,8406
1961 1961-07-13 7.40 1,2806
1962 1962-06-23 11.21 5,7106
1963 1963-06-27 10.71 4,7306
1964 1963-12-11 7.15 1,1606
1965 1965-06-23 10.71 4,7306
1966 1966-05-27 9.65 3,1106
1967 1967-07-06 11.59 6,1606
1968 1968-08-11 6.79 1,0106
1969 1969-06-04   9,9401,6
1970 1970-06-20 9.70 3,5506
1971 1971-06-28 9.95 3,5506
1972 1972-01-25 4.87 3406
1973 1973-06-09 11.93 7,7706
1974 1974-06-12 12.67 9,8106
1975 1975-06-16 10.49 4,8106
1976 1976-04-03   4501,6
1977 1977-09-01 3.34 92.06
1978 1978-06-13 10.92 5,5906
1979 1979-06-07 9.87 3,7806
1980 1980-07-02 12.01 7,9706
1981 1981-06-10 7.94 1,6606
1982 1982-06-19 12.10 8,2106
1983 1983-07-07 13.09 10,7006
1984 1984-05-30 11.82 7,1806
1985 1985-06-01 3.67 1336
1986 1986-06-05 11.00 5,7406
1987 1986-10-28 6.87 1,0306
1988 1987-10-09 5.04 3746
1989 1989-06-12 9.84 3,7306
1990 1990-07-01 4.06 1936
1991 1991-07-04 3.85 1586
1992 1992-07-22 3.75 1406
1993 1993-07-01 10.69 5,1606
1994 1994-07-14 6.96 1,0406
1995 1995-07-09 14.37 13,6006
1996 1996-05-16 13.09 9,9206
1997 1997-01-03 15.08 16,4006
1998 1998-07-10 12.24 7,8206
1999 1999-06-23 10.72 4,9106
2000 2000-06-15 10.32 4,2806
2001 2001-06-06 8.20 1,8106
2002 2002-06-12 8.14 1,7606
2003 2003-06-02 11.96 7,2206
2004 2004-05-28 10.50 4,5606
2005 2005-05-29 11.68 6,6006
2006 2006-06-07 12.39 8,1706
2007 2007-05-21 9.55 3,1106
2008 2008-05-28 11.48 6,7206
2009 2009-05-19 11.86 7,0106
2010 2010-05-13 12.02 7,3506
2011 2011-05-26 12.29 8,2106
2012 2012-05-02 10.36 4,3406
2013 2013-06-07 4.03 1916
2014 2014-05-26 3.202 89.06
2015 2015-07-06 3.29 91.06
2016 2016-05-10 11.57 6,4306
2017 2017-06-24 13.02 9,6806
2018 2018-03-23 10.70 4,8706
2019 2019-04-29 11.69 6,6706
?
  Peak Gage-Height Qualification Codes.
?
  Peak Streamflow Qualification Codes.